| time (UTC) | temp F | wind direction | speed knots | gust knots | rain 1hr in | rain 24hr in | rain mn in | humidity % | barometer mb |
| 20260506030026 | 47 | 325 | 2.6 | 7.0 | 0.00 | 0.01 | 0.01 | 69 | 1014.9 |
| 20260506024528 | 48 | 340 | 3.5 | 10.4 | 0.00 | 0.01 | 0.01 | 65 | 1014.7 |
| 20260506023026 | 50 | 21 | 0.9 | 1.7 | 0.00 | 0.01 | 0.01 | 60 | 1014.2 |
| 20260506021512 | 50 | 360 | 0.0 | 1.7 | 0.00 | 0.01 | 0.01 | 61 | 1013.8 |
| 20260506020017 | 50 | 342 | 0.0 | 1.7 | 0.00 | 0.01 | 0.01 | 60 | 1013.5 |
| 20260506014518 | 51 | 360 | 0.0 | 2.6 | 0.00 | 0.01 | 0.01 | 59 | 1013.4 |
| 20260506013026 | 51 | 321 | 0.9 | 4.3 | 0.00 | 0.01 | 0.01 | 59 | 1013.3 |
| 20260506011527 | 52 | 339 | 1.7 | 7.8 | 0.00 | 0.01 | 0.01 | 55 | 1013.3 |
| 20260506010038 | 53 | 327 | 3.5 | 8.7 | 0.00 | 0.01 | 0.01 | 53 | 1013.4 |
| 20260506004521 | 53 | 238 | 0.9 | 4.3 | 0.00 | 0.01 | 0.01 | 54 | 1013.1 |
| 20260506003023 | 54 | 319 | 0.9 | 4.3 | 0.00 | 0.01 | 0.01 | 53 | 1013.1 |
| 20260506001524 | 54 | 200 | 0.9 | 7.0 | 0.00 | 0.01 | 0.01 | 53 | 1013.0 |
| 20260506000026 | 56 | 287 | 1.7 | 7.0 | 0.00 | 0.01 | 0.01 | 49 | 1012.9 |
| 20260505234515 | 57 | 323 | 2.6 | 7.8 | 0.00 | 0.01 | 0.01 | 47 | 1013.0 |
| 20260505233022 | 58 | 340 | 2.6 | 8.7 | 0.00 | 0.01 | 0.01 | 46 | 1012.9 |
| 20260505231523 | 57 | 352 | 4.3 | 9.6 | 0.00 | 0.01 | 0.01 | 48 | 1013.0 |
| 20260505230037 | 56 | 209 | 1.7 | 3.5 | 0.00 | 0.01 | 0.01 | 54 | 1013.0 |
| 20260505224512 | 54 | 270 | 0.0 | 5.2 | 0.00 | 0.01 | 0.01 | 57 | 1013.1 |
| 20260505223018 | 52 | 315 | 1.7 | 7.8 | 0.00 | 0.01 | 0.01 | 66 | 1013.6 |
| 20260505221524 | 52 | 11 | 4.3 | 13.0 | 0.00 | 0.01 | 0.01 | 61 | 1013.8 |
| 20260505220028 | 53 | 360 | 4.3 | 10.4 | 0.00 | 0.01 | 0.01 | 57 | 1013.8 |
| 20260505214526 | 57 | 309 | 4.3 | 8.7 | 0.00 | 0.01 | 0.01 | 53 | 1013.6 |
| 20260505213024 | 58 | 14 | 4.3 | 7.8 | 0.00 | 0.01 | 0.01 | 51 | 1013.5 |
| 20260505211504 | 59 | 258 | 2.6 | 10.4 | 0.00 | 0.01 | 0.01 | 50 | 1013.6 |
| 20260505210007 | 59 | 318 | 3.5 | 9.6 | 0.00 | 0.01 | 0.01 | 51 | 1013.6 |
| 20260505204509 | 56 | 337 | 2.6 | 9.6 | 0.00 | 0.01 | 0.01 | 55 | 1013.7 |
| 20260505203025 | 56 | 333 | 1.7 | 8.7 | 0.00 | 0.01 | 0.01 | 56 | 1013.9 |
| 20260505201519 | 57 | 320 | 6.1 | 11.3 | 0.00 | 0.01 | 0.01 | 56 | 1014.0 |
| 20260505200006 | 57 | 238 | 4.3 | 11.3 | 0.01 | 0.01 | 0.01 | 57 | 1014.1 |
| 20260505194508 | 55 | 246 | 4.3 | 10.4 | 0.01 | 0.01 | 0.01 | 61 | 1013.9 |
| 20260505193012 | 53 | 238 | 2.6 | 7.0 | 0.01 | 0.01 | 0.01 | 68 | 1014.3 |
| 20260505191519 | 51 | 215 | 1.7 | 7.8 | 0.01 | 0.01 | 0.01 | 82 | 1014.5 |
| 20260505190032 | 53 | 136 | 1.7 | 9.6 | 0.00 | 0.00 | 0.00 | 70 | 1014.6 |
| 20260505184508 | 57 | 242 | 3.5 | 7.8 | 0.00 | 0.00 | 0.00 | 53 | 1014.6 |
| 20260505183009 | 58 | 302 | 3.5 | 9.6 | 0.00 | 0.00 | 0.00 | 49 | 1014.2 |
| 20260505181515 | 58 | 223 | 3.5 | 9.6 | 0.00 | 0.00 | 0.00 | 50 | 1014.4 |
| 20260505180022 | 56 | 207 | 2.6 | 8.7 | 0.00 | 0.00 | 0.00 | 52 | 1014.4 |
| 20260505174524 | 57 | 278 | 2.6 | 7.8 | 0.00 | 0.00 | 0.00 | 49 | 1014.5 |
| 20260505173009 | 54 | 221 | 1.7 | 4.3 | 0.00 | 0.00 | 0.00 | 53 | 1014.7 |
| 20260505171519 | 54 | 343 | 2.6 | 3.5 | 0.00 | 0.00 | 0.00 | 52 | 1015.1 |
| 20260505170020 | 53 | 50 | 0.0 | 4.3 | 0.00 | 0.00 | 0.00 | 53 | 1015.0 |
| 20260505164521 | 52 | 344 | 0.9 | 3.5 | 0.00 | 0.00 | 0.00 | 55 | 1015.0 |
| 20260505163010 | 51 | 332 | 0.9 | 3.5 | 0.00 | 0.00 | 0.00 | 58 | 1015.1 |
| 20260505161510 | 51 | 47 | 0.0 | 4.3 | 0.00 | 0.00 | 0.00 | 57 | 1015.4 |
| 20260505153026 | 50 | 344 | 1.7 | 5.2 | 0.00 | 0.00 | 0.00 | 56 | 1015.5 |
| 20260505151509 | 50 | 338 | 0.9 | 5.2 | 0.00 | 0.00 | 0.00 | 57 | 1015.5 |
| 20260505124516 | 50 | 333 | 0.9 | 2.6 | 0.00 | 0.00 | 0.00 | 50 | 1015.3 |
| 20260505123020 | 50 | 331 | 0.9 | 3.5 | 0.00 | 0.00 | 0.00 | 48 | 1015.4 |
| 20260505121529 | 50 | 344 | 0.9 | 2.6 | 0.00 | 0.00 | 0.00 | 45 | 1015.4 |
| 20260505120053 | 50 | 352 | 0.9 | 1.7 | 0.00 | 0.00 | 0.00 | 44 | 1015.1 |
| 20260505114528 | 50 | 284 | 0.0 | 1.7 | 0.00 | 0.00 | 0.00 | 43 | 1015.0 |
| 20260505113018 | 50 | 340 | 0.0 | 1.7 | 0.00 | 0.00 | 0.00 | 41 | 1015.1 |
| 20260505111525 | 51 | 339 | 0.9 | 2.6 | 0.00 | 0.00 | 0.00 | 40 | 1015.2 |
| 20260505101523 | 53 | 339 | 0.9 | 2.6 | 0.00 | 0.00 | 0.00 | 34 | 1014.9 |
| 20260505100027 | 53 | 344 | 4.3 | 8.7 | 0.00 | 0.00 | 0.00 | 33 | 1014.9 |
| 20260505094526 | 53 | 342 | 0.9 | 4.3 | 0.00 | 0.00 | 0.00 | 31 | 1014.4 |
| 20260505093016 | 53 | 345 | 1.7 | 2.6 | 0.00 | 0.00 | 0.00 | 36 | 1014.3 |
| 20260505091525 | 54 | 325 | 1.7 | 5.2 | 0.00 | 0.00 | 0.00 | 37 | 1014.5 |
| 20260505090037 | 55 | 346 | 2.6 | 8.7 | 0.00 | 0.00 | 0.00 | 37 | 1015.0 |
| 20260505084507 | 55 | 338 | 2.6 | 11.3 | 0.00 | 0.00 | 0.00 | 37 | 1015.1 |
| 20260505083011 | 55 | 302 | 0.9 | 7.8 | 0.00 | 0.00 | 0.00 | 38 | 1015.2 |
| 20260505081518 | 55 | 342 | 1.7 | 6.1 | 0.00 | 0.00 | 0.00 | 37 | 1015.5 |
| 20260505080023 | 56 | 325 | 1.7 | 8.7 | 0.00 | 0.00 | 0.00 | 36 | 1015.7 |
| 20260505074524 | 56 | 330 | 3.5 | 7.0 | 0.00 | 0.00 | 0.00 | 35 | 1015.5 |
| 20260505073024 | 56 | 317 | 5.2 | 8.7 | 0.00 | 0.00 | 0.00 | 34 | 1015.5 |
| 20260505071518 | 57 | 291 | 1.7 | 3.5 | 0.00 | 0.00 | 0.00 | 34 | 1015.7 |
| 20260505070023 | 57 | 267 | 0.0 | 6.1 | 0.00 | 0.00 | 0.00 | 33 | 1015.6 |
| 20260505064536 | 57 | 329 | 3.5 | 6.1 | 0.00 | 0.00 | 0.00 | 32 | 1015.3 |
| 20260505063006 | 58 | 342 | 0.9 | 3.5 | 0.00 | 0.00 | 0.00 | 32 | 1015.4 |
| 20260505061544 | 58 | 119 | 0.9 | 7.8 | 0.00 | 0.00 | 0.00 | 30 | 1015.6 |
| 20260505060019 | 59 | 264 | 0.9 | 7.8 | 0.00 | 0.00 | 0.00 | 30 | 1015.3 |
| 20260505054530 | 59 | 294 | 2.6 | 7.0 | 0.00 | 0.00 | 0.00 | 29 | 1015.2 |
| 20260505053031 | 59 | 243 | 1.7 | 10.4 | 0.00 | 0.00 | 0.00 | 28 | 1015.1 |
| 20260505051508 | 60 | 13 | 4.3 | 12.2 | 0.00 | 0.00 | 0.00 | 28 | 1014.9 |
| 20260505041526 | 61 | 360 | 4.3 | 9.6 | 0.00 | 0.00 | 0.00 | 28 | 1014.9 |
| 20260505040011 | 61 | 346 | 3.5 | 11.3 | 0.00 | 0.00 | 0.00 | 28 | 1015.1 |
| 20260505034519 | 61 | 333 | 2.6 | 12.2 | 0.00 | 0.00 | 0.00 | 27 | 1015.0 |
| 20260505033023 | 62 | 298 | 5.2 | 12.2 | 0.00 | 0.00 | 0.00 | 27 | 1014.9 |
| 20260505031540 | 63 | 300 | 3.5 | 11.3 | 0.00 | 0.00 | 0.00 | 26 | 1014.7 |